DW3436 Moss NO current weather conditions

sailwx.info

Wind from 178

Air temperature 16.7° C
Dewpoint 13.4° C

Last reported at 2019-Jun-16 04:46 UTC.
Time now 2019-Jun-16 05:21 UTC

Location: N 59°26' E 010°38'.
View on Google Maps.

See reports from other nearby stations

  
Tides and Currents Weather Stations Pressure Air Temp Water Temp Dewpoint Dewpoint Depression Visibility Wind Speed Wind Dir Waves Ship Positions
date/time (UTC)wind fromknots sea level pressurealtimeterstation pressurevisibilityair tempwater tempwave heightnotes
2019-Jun-16 04:46 178 16.7
2019-Jun-16 04:30 178 16.7
2019-Jun-16 04:15 118 16.7
2019-Jun-16 04:01 097 16.7
2019-Jun-16 03:45 097 16.7
2019-Jun-16 03:32 096 16.7
2019-Jun-16 03:16 094 16.7
2019-Jun-16 03:01 100 16.7
2019-Jun-16 02:46 101 16.7
2019-Jun-16 02:31 130 16.7
2019-Jun-16 02:16 015 17.2
2019-Jun-16 02:01 015 17.2
2019-Jun-16 01:46 059 17.2
2019-Jun-16 01:32 040 17.2
2019-Jun-16 01:16 036 17.2
2019-Jun-16 01:00 032 16.7
2019-Jun-16 00:45 030 16.7
2019-Jun-16 00:31 019 16.7
2019-Jun-16 00:15 039 16.7
2019-Jun-16 00:01 071 17.2
2019-Jun-15 23:45 073 17.2
2019-Jun-15 23:31 113 17.2
2019-Jun-15 23:15 105 17.8
2019-Jun-15 23:00 130 17.8
2019-Jun-15 22:45 151 17.8
2019-Jun-15 22:30 117 17.8
2019-Jun-15 22:15 150 18.3
2019-Jun-15 22:00 165 18.3
2019-Jun-15 21:45 169 18.9
2019-Jun-15 21:30 154 20.0
2019-Jun-15 21:15 146 20.0
2019-Jun-15 21:00 146 20.6
2019-Jun-15 20:45 146 20.0
2019-Jun-15 20:30 236 21.1
2019-Jun-15 20:15 021 21.1
2019-Jun-15 20:00 219 21.1
2019-Jun-15 19:45 218 21.7
2019-Jun-15 19:32 218 21.7
2019-Jun-15 19:17 217 22.2
2019-Jun-15 19:01 217 22.2
2019-Jun-15 18:46 217 22.2
2019-Jun-15 18:32 217 22.2
2019-Jun-15 18:16 217 22.8
2019-Jun-15 18:02 217 22.2
2019-Jun-15 17:47 217 22.2
2019-Jun-15 17:33 217 22.2
2019-Jun-15 17:17 217 22.2
2019-Jun-15 17:01 265 22.2
2019-Jun-15 16:46 271 22.8
2019-Jun-15 16:31 203 23.9
2019-Jun-15 16:16 159 23.9
2019-Jun-15 16:01 047 23.9
2019-Jun-15 15:45 143 23.9
2019-Jun-15 15:31 211 23.3
2019-Jun-15 15:16 088 23.3
2019-Jun-15 15:01 304 22.8
2019-Jun-15 14:46 313 23.3
2019-Jun-15 14:31 059 24.4
2019-Jun-15 14:16 069 23.9
2019-Jun-15 14:00 075 23.9
2019-Jun-15 13:46 030 23.3
2019-Jun-15 13:31 261 23.3
2019-Jun-15 13:15 074 23.9
2019-Jun-15 13:01 049 23.9
2019-Jun-15 12:45 355 23.3
2019-Jun-15 12:30 334 22.2
2019-Jun-15 12:15 311 21.7
2019-Jun-15 12:00 009 22.2
2019-Jun-15 11:45 340 21.7
2019-Jun-15 11:30 015 21.7
2019-Jun-15 11:15 360 21.1
2019-Jun-15 11:00 322 20.6
2019-Jun-15 10:45 355 20.6
2019-Jun-15 10:30 250 19.4
2019-Jun-15 10:16 302 19.4
2019-Jun-15 10:15 313 18.9
2019-Jun-15 10:02 302 18.3
2019-Jun-15 09:47 312 18.9
2019-Jun-15 09:45 317 18.9
2019-Jun-15 09:32 314 18.9
2019-Jun-15 09:17 302 20.0
2019-Jun-15 09:01 292 18.3
2019-Jun-15 08:47 279 17.2
2019-Jun-15 08:31 323 17.8
2019-Jun-15 08:17 334 17.8
2019-Jun-15 08:01 286 18.9
2019-Jun-15 07:47 324 18.9
2019-Jun-15 07:32 029 18.3
2019-Jun-15 07:17 346 18.3
2019-Jun-15 07:01 047 17.8
2019-Jun-15 06:30 045 17.8
2019-Jun-15 06:16 048 16.7
2019-Jun-15 06:01 033 16.7
2019-Jun-15 05:45 240 15.6
2019-Jun-15 05:30 216 15.0
2019-Jun-15 05:16 217 15.0
2019-Jun-15 05:00 298 15.6
2019-Jun-15 04:46 298 15.0
2019-Jun-15 04:31 298 14.4
2019-Jun-15 04:16 298 14.4
2019-Jun-15 04:00 297 13.9
2019-Jun-15 03:45 297 13.9
2019-Jun-15 03:30 297 13.3
2019-Jun-15 03:15 296 13.3
2019-Jun-15 03:00 291 13.3
2019-Jun-15 02:45 290 12.8
2019-Jun-15 02:30 290 12.2
2019-Jun-15 02:15 290 12.8
2019-Jun-15 02:00 290 12.8
2019-Jun-15 01:45 319 12.8
2019-Jun-15 01:30 026 12.8
2019-Jun-15 01:15 026 13.3
2019-Jun-15 01:00 026 13.3
2019-Jun-15 00:45 026 13.3
2019-Jun-15 00:30 026 13.3
2019-Jun-15 00:17 053 13.3
2019-Jun-15 00:03 053 13.3
2019-Jun-14 23:48 053 13.3
2019-Jun-14 23:32 053 13.3
2019-Jun-14 23:17 053 13.3
2019-Jun-14 23:01 053 13.3
2019-Jun-14 22:46 053 13.3
2019-Jun-14 22:31 054 13.3
2019-Jun-14 22:17 055 13.3
2019-Jun-14 22:01 077 13.3
2019-Jun-14 21:46 025 13.3
2019-Jun-14 21:31 025 13.3
2019-Jun-14 21:17 090 13.9
2019-Jun-14 21:01 167 13.9
2019-Jun-14 20:47 167 13.9
2019-Jun-14 20:31 167 13.9
2019-Jun-14 20:16 155 14.4
2019-Jun-14 20:01 167 14.4
2019-Jun-14 19:47 140 14.4
2019-Jun-14 19:30 154 15.0
2019-Jun-14 19:16 183 15.0
2019-Jun-14 19:02 155 15.6
2019-Jun-14 18:46 200 15.6
2019-Jun-14 18:30 175 15.6
2019-Jun-14 18:16 174 16.1
2019-Jun-14 18:01 166 16.1
2019-Jun-14 17:46 165 16.1
2019-Jun-14 17:31 160 17.2
2019-Jun-14 17:16 207 16.7
2019-Jun-14 17:01 172 16.7
2019-Jun-14 16:46 136 16.7
2019-Jun-14 16:30 133 17.2
2019-Jun-14 16:16 177 17.2
2019-Jun-14 16:01 171 17.2
2019-Jun-14 15:47 154 16.7
2019-Jun-14 15:30 152 17.2
2019-Jun-14 15:16 169 16.7
2019-Jun-14 15:01 180 17.2
2019-Jun-14 14:45 173 17.2
2019-Jun-14 14:30 153 16.7
2019-Jun-14 14:15 182 16.7
2019-Jun-14 14:00 209 16.1
2019-Jun-14 13:45 196 16.1
2019-Jun-14 13:31 219 16.1
2019-Jun-14 13:15 182 16.1
2019-Jun-14 13:00 211 16.1
2019-Jun-14 12:45 216 16.1
2019-Jun-14 12:31 171 16.7
2019-Jun-14 12:16 165 16.7
2019-Jun-14 12:01 208 16.1
2019-Jun-14 11:45 215 16.1
2019-Jun-14 11:31 165 16.7
2019-Jun-14 11:15 174 15.6
2019-Jun-14 11:00 200 15.6
2019-Jun-14 10:45 157 15.6
2019-Jun-14 10:30 084 15.6
2019-Jun-14 10:15 082 15.0
2019-Jun-14 10:00 029 15.0
2019-Jun-14 09:45 061 15.0
2019-Jun-14 09:30 090 14.4
2019-Jun-14 09:15 049 14.4
2019-Jun-14 09:02 046 13.9
2019-Jun-14 08:49 046 13.9
2019-Jun-14 08:31 055 13.9
2019-Jun-14 08:18 005 13.3
2019-Jun-14 08:01 036 13.3
2019-Jun-14 07:45 029 13.3
2019-Jun-14 07:31 056 13.3
2019-Jun-14 07:16 024 13.3
2019-Jun-14 07:01 044 12.8
2019-Jun-14 06:48 038 12.8
2019-Jun-14 06:31 061 12.8
2019-Jun-14 06:16 032 13.3
2019-Jun-14 06:02 063 13.3
2019-Jun-14 05:46 084 13.3
2019-Jun-14 05:31 054 13.3
2019-Jun-14 05:17 039 13.3
2019-Jun-14 05:01 044 13.3